User: anonymous   Login
Location: Sevilla
(37.3933°N, 5.9839°W)
Time: 22:14:29
(UTC+02:00)
Language:

Altair - Orbit

View from above orbital plane
View from above orbital plane
View from above satellite
View from above satellite

Ground track
Ground track

The orbit data is extracted from the following two-line orbital elements,

1 00050U 60009B   24174.62284542 -.00000055  00000-0  28847-3 0  9994
2 00050  47.2303 250.7047 0112768  15.2111 345.2026 12.20141147849238
Epoch (UTC): 22 June 2024 14:56:53
Eccentricity: 0.0112768
inclination: 47.2303°
perigee height: 1502 km
apogee height: 1682 km
right ascension of ascending node: 250.7047°
argument of perigee: 15.2111°
revolutions per day: 12.20141147
mean anomaly at epoch: 345.2026°
orbit number at epoch: 84923

The dashed part of the orbit path shows where the satellite is in the earth's shadow,  

DLR